This is the latest recevied weather packets stored in our database for station/object PA0HHN. If no packets are shown the sender has not sent any weather packets the latest 10 day(s).
| Time | Temp. | Humidity | Pressure | Rain* | Wind** | Luminosity | Snow |
|---|---|---|---|---|---|---|---|
| 1777963502 | 7.78° C | 97% | 1006.4 hPa | - | - | - | - |
| 1777961700 | 7.78° C | 96% | 1006.5 hPa | - | - | - | - |
| 1777948200 | 8.89° C | 92% | 1006.7 hPa | - | - | - | - |
| 1777947300 | 8.89° C | 91% | 1006.7 hPa | - | - | - | - |
| 1777944600 | 8.89° C | 92% | 1007.2 hPa | - | - | - | - |
| 1777941000 | 8.89° C | 95% | 1006.9 hPa | - | - | - | - |
| 1777940100 | 8.89° C | 95% | 1007.2 hPa | - | - | - | - |
| 1777939202 | 8.89° C | 94% | 1007 hPa | - | - | - | - |
| 1777938300 | 10° C | 93% | 1007.1 hPa | - | - | - | - |
| 1777937402 | 10° C | 91% | 1007.3 hPa | - | - | - | - |
| 1777936502 | 10° C | 92% | 1007.5 hPa | - | - | - | - |
| 1777935601 | 11.11° C | 92% | 1007.3 hPa | - | - | - | - |
| 1777934700 | 11.11° C | 92% | 1007.6 hPa | - | - | - | - |
| 1777933801 | 11.11° C | 91% | 1007.5 hPa | - | - | - | - |
| 1777930200 | 12.22° C | 92% | 1008 hPa | - | - | - | - |
| 1777929302 | 12.22° C | 92% | 1007.7 hPa | - | - | - | - |
| 1777928401 | 12.22° C | 92% | 1007.7 hPa | - | - | - | - |
| 1777927503 | 12.22° C | 92% | 1007.9 hPa | - | - | - | - |
| 1777926601 | 12.22° C | 92% | 1008.1 hPa | - | - | - | - |
| 1777925702 | 12.22° C | 92% | 1007.9 hPa | - | - | - | - |
| 1777924802 | 12.22° C | 91% | 1007.7 hPa | - | - | - | - |
| 1777923900 | 12.78° C | 92% | 1007.8 hPa | - | - | - | - |
| 1777923001 | 12.78° C | 90% | 1007.6 hPa | - | - | - | - |
| 1777922101 | 13.89° C | 91% | 1007.3 hPa | - | - | - | - |
| 1777921202 | 13.89° C | 91% | 1007.4 hPa | - | - | - | - |
* Rain since midnight (hover to see other rain measurements)
** Current wind speed in m/s (hover to see current wind gust speed)